FENGYUN 1C DEB, 31374

Orbit data source: Space-Track

FENGYUN 1C DEB, 31374 is space debris in SSO originally from a launch on Mon, 10 May 1999 UTC launched from the Taiyaun Space Center, China (TSC). Fengyun 1C debris stems from the Chinese weather satellite Fengyun-1C, which was intentionally destroyed by a Chinese anti-satellite missile in 2007. This event dramatically increased the amount of space debris, with thousands of trackable fragments posing hazards to satellites and human spaceflight. The Fengyun 1C debris cloud has become a focal point in discussions about space sustainability and the need for international regulations to prevent the creation of new debris.

Loading next visibility...
Identifier
31374, 1999-025BSE
Orbit
SSO
Country
Flag of CNCN / PRC
Related business
Manufacturer
Unknown
Mission
Spacecraft
Bus & Motor
Unknown
Mass
Unknown
Launch date (UTC)
1999-05-10 (27 years ago)
Launch vehicle
Unknown
Launch site
Taiyaun Space Center, China (TSC)
Object type
Payload
Rocket body
Debris
Shape & HBR
Unknown shape, 1.1 m
Radar Cross Section
Medium (>0.1 m² and <1 m²)

Expand to show TLE details & history
Last TLE update: 3 weeks ago

TLE from 3 weeks ago
0 FENGYUN 1C DEB
1 31374U 99025BSE 26217.24998932  .00003466  00000-0  10576-2 0  9997
2 31374  99.6387  21.1663 0137005  28.9262 331.9428 14.37405106994324
Epoch: 2026-08-05T05:59Z
TLE epoch observation values (Epoch: 2026-08-05T05:59:59.077Z)
Latitude
0.00007°
Longitude
-22.63696°
Altitude
683.888 km
Speed
7.56 km/s
True Right ascension
01h 24m 39s
True Declination
0° 00' 00"
Sunlit
Object was in daylight at epoch
Visualization orbit readout
Latitude
Unknown
Longitude
Unknown
Altitude
Unknown
Speed
Unknown
Apparent Right ascension
Unknown
Apparent Declination
Unknown
Sunlit
N/A
Visualization observer readout
Local Sidereal Time
02:28:43
Azimuth
Unknown
Elevation
Unknown
Doppler factor
Unknown
Orbital elements
Apogee altitude
862.121 km
Perigee altitude
666.412 km
Semi-major axis
7,142.404 km
Eccentricity
0.0137
Inclination
99.6387°
RAAN
21.1663°
Arg. of periapsis
28.9262°
True anomaly
331.19306°
Mean anomaly
331.9428°
Eccentric anomaly
331.56907°
Mean motion
3.59564 °/min
Orbital period
100.12 mins
BSTAR
0.0010576
Loading maneuver chart data...
Computing Atmospheric mass density...

Documentation

Showing up to 5 results
|